[[{"header":{"parameterUnit":"m.s-1","parameterCategory":2,"la1":30.2991,"la2":30.254,"lo1":-89.0895,"lo2":-89.0444,"dy":0.0017,"dx":0.0017,"nx":28,"ny":28,"refTime":"2024-08-13T09:00:00:Z","depth":"0","parameterNumber":2,"parameterNumberName":"U-component_of_CURRENTS"},"data":[0,0,0,0,0,0,0,0,0,0,0,0,0,0,0,0,0,0,0,0,0,0,0,0,0,0,0,0,0,0,0,0,0,0,0,0,0,0,0,0,0,0,0,0,0,0,0,0,0,0,0,0,0,0,0,0,0,0,-0.0117,-0.0119,0,-0.0352,-0.0356,-0.0359,-0.0488,-0.0488,-0.0487,-0.0486,-0.0395,-0.0393,-0.0391,0,0,0,0,0,0,0,0,0,0,0,0,0,-0.0066,-0.0065,-0.0117,-0.0119,-0.0121,-0.0352,-0.0356,-0.036,-0.0488,-0.0488,-0.0487,-0.0486,-0.0395,-0.0393,-0.0391,0,0,0,0,0,0,0,0,0,0,0,0,0,-0.0183,-0.0065,-0.0117,-0.0204,-0.0214,-0.0351,-0.0356,-0.0362,-0.0489,-0.0488,-0.0486,-0.0486,-0.0396,-0.0393,-0.0391,-0.0395,0,0,-0.0383,-0.0381,0,0,0,0,0,0,0,0,-0.0176,-0.0186,-0.0189,-0.0198,-0.0209,-0.038,-0.0305,-0.0353,-0.0489,-0.0396,-0.0486,-0.0485,-0.0353,-0.0354,-0.0421,-0.0391,-0.0387,-0.0382,-0.0381,-0.038,-0.0379,0,0,0,0,0,0,0,-0.0167,-0.0178,-0.0222,-0.0191,-0.0203,-0.033,-0.0344,-0.0318,-0.038,-0.0404,-0.0411,-0.042,-0.0357,-0.0424,-0.0418,-0.0385,-0.0382,-0.038,-0.0378,-0.0377,-0.0361,-0.0362,0,0,0,0,0,0,-0.0102,-0.0169,-0.0214,-0.0227,-0.0177,-0.0329,-0.0346,-0.0335,-0.0388,-0.0394,-0.042,-0.0425,-0.0429,-0.0422,-0.0415,-0.0374,-0.038,-0.0377,-0.0375,-0.036,-0.0361,-0.0363,0,0,0,0,0,0,-0.0099,-0.0103,-0.0204,-0.0197,-0.0217,-0.0328,-0.0318,-0.034,-0.041,-0.0402,-0.0404,-0.0464,-0.0428,-0.0419,-0.0403,-0.0372,-0.0376,-0.0373,-0.0358,-0.036,-0.0362,-0.032,0,0,0,0,0,0,-0.0097,-0.01,-0.0091,-0.0191,-0.0214,-0.0302,-0.0318,-0.0345,-0.0411,-0.042,-0.0439,-0.0431,-0.0426,-0.0407,-0.04,-0.0368,-0.0371,-0.0357,-0.0359,-0.0361,-0.032,-0.032,-0.032,0,0,0,0,0,-0.0094,-0.0088,-0.0088,-0.0095,-0.0189,-0.0303,-0.033,-0.0414,-0.0413,-0.0469,-0.0463,-0.0431,-0.0416,-0.0406,-0.0397,-0.0364,-0.0356,-0.0359,-0.0361,-0.032,-0.032,-0.032,0,0,0,0,0,0,-0.0125,-0.0102,-0.0105,-0.0108,-0.0198,-0.032,-0.0366,-0.0414,-0.0469,-0.0435,-0.0442,-0.0435,-0.0395,-0.0408,-0.0397,-0.0375,-0.0382,-0.0383,-0.0353,-0.0353,-0.0353,-0.0404,-0.0369,0,0,0,0,0,-0.0103,-0.0059,-0.0118,-0.0136,-0.0157,-0.0258,-0.0314,-0.0354,-0.0404,-0.0433,-0.0452,-0.0442,-0.0406,-0.0402,-0.0382,-0.0378,-0.0385,-0.0359,-0.0359,-0.0358,-0.04,-0.0386,-0.0387,-0.0371,-0.0371,-0.0371,0,0,-0.0122,-0.0107,-0.0089,-0.0134,-0.0198,-0.0241,-0.0294,-0.0354,-0.0395,-0.0397,-0.0451,-0.0421,-0.0401,-0.0387,-0.0374,-0.0392,-0.0362,-0.0362,-0.0361,-0.0404,-0.0389,-0.039,-0.0391,-0.0373,-0.0373,-0.0372,0,0,-0.0154,-0.0121,-0.0099,-0.013,-0.0175,-0.0236,-0.0243,-0.0344,-0.0392,-0.0418,-0.0411,-0.0402,-0.0382,-0.0396,-0.0379,-0.0381,-0.0342,-0.0348,-0.0405,-0.0389,-0.0389,-0.039,-0.0369,-0.0369,-0.0373,-0.0372,-0.0372,0,-0.0195,-0.0147,-0.014,-0.0136,-0.0149,-0.022,-0.0239,-0.031,-0.0403,-0.0425,-0.0413,-0.0414,-0.0393,-0.0385,-0.0398,-0.0376,-0.0358,-0.0389,-0.0385,-0.0387,-0.0388,-0.0367,-0.0367,-0.0371,-0.0371,-0.0371,-0.0371,0,-0.0197,-0.0163,-0.0165,-0.0142,-0.0179,-0.0202,-0.0252,-0.0306,-0.033,-0.039,-0.0393,-0.04,-0.041,-0.0392,-0.0389,-0.0397,-0.0373,-0.0357,-0.0374,-0.0387,-0.0364,-0.0365,-0.0368,-0.0369,-0.0369,-0.037,0,0,-0.0243,-0.018,-0.0166,-0.0156,-0.0151,-0.0201,-0.0223,-0.0298,-0.0322,-0.0382,-0.0405,-0.0408,-0.0426,-0.042,-0.0417,-0.0445,-0.0424,-0.0421,-0.0421,-0.0385,-0.0373,-0.0195,-0.0179,-0.0383,-0.0384,-0.0384,-0.034,0,-0.0256,-0.0238,-0.0186,-0.0193,-0.0189,-0.0195,-0.023,-0.0279,-0.0316,-0.0361,-0.0379,-0.0376,-0.0429,-0.0395,-0.0439,-0.0386,-0.043,-0.0439,-0.0385,-0.0385,-0.0211,-0.0175,0.0003,0.0072,-0.034,-0.0341,-0.0341,0,-0.0226,-0.0217,-0.0208,-0.0187,-0.0187,-0.021,-0.0238,-0.0254,-0.0299,-0.0324,-0.0349,-0.0345,-0.0372,-0.0399,-0.0416,-0.0402,-0.0421,-0.042,-0.0416,-0.028,-0.0209,0.0007,0.0086,0.007,-0.0342,-0.0341,-0.0341,0,-0.0237,-0.0209,-0.0207,-0.019,-0.0198,-0.0206,-0.0213,-0.0247,-0.0249,-0.0274,-0.0262,-0.0308,-0.0271,-0.0314,-0.0318,-0.0345,-0.0315,-0.0331,-0.0222,-0.021,-0.007,-0.0041,0.0008,-0.04,-0.04,-0.0401,-0.0401,0,-0.0226,-0.0217,-0.0216,-0.0217,-0.021,-0.0193,-0.0203,-0.0216,-0.0211,-0.0194,-0.0231,-0.0206,-0.0248,-0.0223,-0.0275,-0.0209,-0.0273,-0.0232,-0.0183,-0.0045,-0.0016,-0.0035,-0.0187,-0.0399,-0.0399,-0.0399,-0.04,0,-0.0218,-0.0215,-0.0214,-0.0227,-0.0205,-0.0194,-0.0165,-0.0168,-0.017,-0.0124,-0.0106,-0.0093,-0.0028,-0.0074,-0.0084,-0.0098,-0.0076,-0.0077,0.0098,0.0168,0.03,0.0142,0.007,0.008,0.0084,0.0088,0.0092,0,-0.0221,-0.0209,-0.0201,-0.0188,-0.0191,-0.0169,-0.0133,-0.0132,-0.0131,-0.005,-0.0017,0.0078,0.0147,0.023,0.0254,0.0259,0.0074,0.039,0.0349,0.0342,0.0199,0.0033,0.0031,0.0546,0.0554,0.056,0.0565,0,-0.0219,-0.0211,-0.0209,-0.0165,-0.014,-0.0107,-0.0076,-0.0056,-0.0018,0.0014,0.0135,0.0245,0.0388,0.055,0.0597,0.0604,0.0405,0.0519,0.046,0.0517,0.0382,0.041,0.0464,0.0619,0.0613,0.0609,0.0606,0.0604,-0.0207,-0.0195,-0.0173,-0.0124,-0.0087,-0.0025,0.0,0.003,0.0111,0.0208,0.0287,0.0459,0.071,0.0866,0.0906,0.1058,0.0747,0.101,0.0804,0.0629,0.0674,0.0862,0.1114,0.1112,0.1109,0.1107,0.1106,0,-0.0203,-0.0169,-0.0125,-0.0083,-0.0043,-0.0025,0.0058,0.0092,0.0193,0.0322,0.043,0.077,0.1028,0.1194,0.1407,0.1358,0.1251,0.1228,0.1005,0.098,0.1161,0.1231,0.1586,0.1586,0.1586,0.1585,0.1585,0.1585,-0.0211,-0.0161,-0.0117,-0.0033,-0.0006,0.0066,0.0118,0.0213,0.0299,0.0527,0.0697,0.085,0.1116,0.1276,0.1435,0.1418,0.1179,0.1086,0.0894,0.1005,0.0968,0.0933,0.0974,0.1268,0.1267,0.0868,0.0864,0.086]},{"header":{"parameterUnit":"m.s-1","parameterCategory":2,"la1":30.2991,"la2":30.254,"lo1":-89.0895,"lo2":-89.0444,"dy":0.0017,"dx":0.0017,"nx":28,"ny":28,"refTime":"2024-08-13T09:00:00:Z","depth":"0","parameterNumber":3,"parameterNumberName":"V-component_of_CURRENTS"},"data":[0,0,0,0,0,0,0,0,0,0,0,0,0,0,0,0,0,0,0,0,0,0,0,0,0,0,0,0,0,0,0,0,0,0,0,0,0,0,0,0,0,0,0,0,0,0,0,0,0,0,0,0,0,0,0,0,0,0,-0.0037,-0.0035,0,0.0072,0.0073,0.0074,0.0167,0.0168,0.017,0.0171,0.0224,0.0224,0.0224,0,0,0,0,0,0,0,0,0,0,0,0,0,-0.0116,-0.0115,-0.0037,-0.0035,-0.0033,0.0072,0.0073,0.0074,0.0167,0.0168,0.017,0.0172,0.0224,0.0224,0.0224,0,0,0,0,0,0,0,0,0,0,0,0,0,-0.0057,-0.0115,-0.0037,0.003,0.0037,0.0072,0.0073,0.0074,0.0166,0.0168,0.0171,0.0173,0.0224,0.0224,0.0224,0.0177,0,0,0.0223,0.0223,0,0,0,0,0,0,0,0,-0.006,-0.0055,0.0018,0.0025,0.0034,0.0113,0.0065,0.0108,0.0166,0.0111,0.0171,0.0174,0.0183,0.0187,0.0195,0.018,0.0182,0.0223,0.0223,0.0223,0.0223,0,0,0,0,0,0,0,-0.0065,-0.0059,0.0001,0.002,0.0029,0.0072,0.0081,0.0074,0.0128,0.0116,0.0125,0.0145,0.0187,0.0195,0.0197,0.0183,0.0223,0.0223,0.0223,0.0223,0.0207,0.0207,0,0,0,0,0,0,-0.0073,-0.0063,-0.0003,0.0004,-0.0003,0.0071,0.0082,0.0081,0.0129,0.0141,0.0143,0.0149,0.0194,0.0197,0.0199,0.0154,0.0223,0.0223,0.0223,0.0208,0.0207,0.0207,0,0,0,0,0,0,-0.0075,-0.0069,-0.0007,-0.0021,-0.0009,0.007,0.0068,0.0082,0.0086,0.0151,0.0161,0.0134,0.0196,0.0199,0.0164,0.0157,0.0223,0.0223,0.0208,0.0208,0.0207,0.006,0,0,0,0,0,0,-0.0078,-0.0072,-0.0083,-0.0022,-0.0008,0.0021,0.0067,0.0082,0.0098,0.0107,0.0146,0.0154,0.0198,0.0164,0.0164,0.0158,0.0223,0.0209,0.0208,0.0207,0.0065,0.0054,0.0045,0,0,0,0,0,-0.0082,-0.0128,-0.0085,-0.0077,-0.0026,0.0021,0.0031,0.0093,0.0095,0.0101,0.0097,0.0153,0.0163,0.016,0.0162,0.0156,0.0209,0.0208,0.0207,0.007,0.0056,0.0045,0,0,0,0,0,0,-0.0173,-0.0119,-0.0073,-0.0098,-0.0028,0.0039,0.0034,0.0069,0.007,0.0056,0.0106,0.0112,0.0088,0.0136,0.0133,0.0158,0.0212,0.0211,0.0107,0.0095,0.0085,0.0105,0.0223,0,0,0,0,0,-0.0195,-0.0204,-0.0126,-0.0134,-0.0118,-0.0048,-0.0029,0.0013,0.0031,0.0036,0.0067,0.0089,0.0085,0.0097,0.0111,0.0095,0.0133,0.011,0.01,0.009,0.0112,0.0147,0.0141,0.0204,0.0204,0.0204,0,0,-0.0223,-0.0197,-0.0197,-0.0151,-0.0108,-0.0085,-0.0034,-0.0019,0.0001,0.0033,0.0033,0.0033,0.0067,0.0056,0.0057,0.0096,0.0079,0.0089,0.008,0.0108,0.0145,0.0139,0.0133,0.0203,0.0204,0.0204,0,0,-0.0277,-0.0271,-0.0283,-0.0247,-0.0187,-0.014,-0.0142,-0.0082,-0.0059,-0.0059,-0.0043,-0.0064,-0.0026,-0.0016,-0.0007,-0.0068,0.0008,-0.0035,-0.0059,-0.0028,-0.0033,-0.0037,-0.0062,-0.0067,-0.002,-0.0021,-0.0021,0,-0.0287,-0.0307,-0.0275,-0.0274,-0.0248,-0.0172,-0.0166,-0.014,-0.0092,-0.0094,-0.0063,-0.006,-0.0057,-0.0084,-0.0096,-0.0094,-0.0066,-0.0029,-0.0044,-0.0046,-0.0047,-0.0071,-0.0075,-0.0028,-0.0027,-0.0026,-0.0026,0,-0.0341,-0.0348,-0.0365,-0.0324,-0.0301,-0.029,-0.0233,-0.0217,-0.0185,-0.0151,-0.0165,-0.016,-0.014,-0.0147,-0.0145,-0.0153,-0.0133,-0.0085,-0.0022,-0.0063,-0.0086,-0.0087,-0.0038,-0.0036,-0.0034,-0.0032,0,0,-0.0355,-0.0383,-0.0383,-0.037,-0.033,-0.0307,-0.0304,-0.0264,-0.0258,-0.0223,-0.0221,-0.0246,-0.0231,-0.0218,-0.0214,-0.0187,-0.0228,-0.0133,-0.0128,-0.0176,-0.0186,-0.0168,-0.0167,-0.0168,-0.0167,-0.0167,-0.0224,0,-0.0371,-0.0408,-0.0406,-0.0401,-0.0411,-0.0358,-0.0353,-0.0326,-0.0283,-0.0266,-0.0272,-0.0272,-0.0258,-0.0258,-0.024,-0.0221,-0.0223,-0.0218,-0.012,-0.0119,-0.011,-0.0163,-0.0078,-0.0118,-0.0224,-0.0224,-0.0224,0,-0.0397,-0.0429,-0.0459,-0.0448,-0.0444,-0.0427,-0.0391,-0.0377,-0.0361,-0.0327,-0.032,-0.0306,-0.0321,-0.0275,-0.0253,-0.0239,-0.0224,-0.0202,-0.0202,-0.0117,-0.0098,-0.0076,-0.0114,0.0037,-0.0225,-0.0225,-0.0225,0,-0.0421,-0.0438,-0.0469,-0.0469,-0.0465,-0.046,-0.044,-0.0417,-0.0394,-0.0372,-0.0347,-0.0342,-0.0329,-0.0292,-0.0273,-0.0246,-0.0234,-0.0193,-0.0176,-0.0178,-0.0048,-0.0038,0.007,-0.0171,-0.0171,-0.0171,-0.0171,0,-0.0428,-0.0437,-0.0489,-0.0506,-0.0515,-0.0513,-0.0498,-0.0457,-0.0433,-0.0411,-0.0393,-0.0355,-0.0314,-0.0307,-0.0287,-0.0247,-0.025,-0.0189,-0.0178,-0.0105,-0.0099,0.0089,0.0128,-0.0173,-0.0173,-0.0172,-0.0172,0,-0.0422,-0.0459,-0.0488,-0.0526,-0.0528,-0.0541,-0.0508,-0.0502,-0.0468,-0.0431,-0.0428,-0.0367,-0.0346,-0.0346,-0.03,-0.0258,-0.015,-0.0227,-0.018,-0.016,0.0033,0.0059,0.0131,0.0236,-0.0197,-0.0197,-0.0196,0,-0.0418,-0.0454,-0.0509,-0.052,-0.0525,-0.0545,-0.0555,-0.052,-0.0498,-0.0424,-0.0411,-0.0386,-0.0344,-0.0314,-0.0266,-0.026,-0.0153,-0.0147,-0.007,0.0053,0.009,0.0093,0.0177,0.0005,0.0007,0.0008,0.0009,0,-0.0421,-0.0447,-0.048,-0.0513,-0.0527,-0.0544,-0.0545,-0.0529,-0.0493,-0.0438,-0.0365,-0.0332,-0.0303,-0.0228,-0.0221,-0.0178,-0.0004,-0.0113,0.0035,0.0274,0.0268,0.0372,-0.0016,0.0023,0.0022,0.0021,0.002,0.002,-0.0413,-0.0428,-0.0474,-0.0484,-0.0507,-0.0527,-0.0521,-0.0506,-0.046,-0.0354,-0.0336,-0.0229,-0.0124,-0.0087,-0.0053,0.0148,0.0078,0.0264,0.0278,0.0263,0.0406,0.0014,0.0066,0.0065,0.0064,0.0063,0.0062,0,-0.0407,-0.0412,-0.043,-0.0452,-0.0466,-0.0485,-0.0497,-0.0473,-0.0409,-0.0299,-0.0214,0.0007,0.0114,0.0225,0.0404,0.0537,0.0602,0.0627,0.0698,0.0766,0.0455,0.0515,0.0646,0.0646,0.0646,0.0646,0.0646,0.0645,-0.0392,-0.0404,-0.0413,-0.0415,-0.0427,-0.0423,-0.0431,-0.0384,-0.0299,-0.0084,0.0098,0.0229,0.0505,0.0611,0.0865,0.0918,0.109,0.1029,0.1097,0.0939,0.0909,0.0879,0.0951,0.1172,0.1172,0.1469,0.1472,0.1474]}],[{"header":{"parameterUnit":"m.s-1","parameterCategory":2,"la1":30.2991,"la2":30.254,"lo1":-89.0895,"lo2":-89.0444,"dy":0.0017,"dx":0.0017,"nx":28,"ny":28,"refTime":"2024-08-13T09:00:00:Z","depth":"2","parameterNumber":2,"parameterNumberName":"U-component_of_CURRENTS"},"data":[0,0,0,0,0,0,0,0,0,0,0,0,0,0,0,0,0,0,0,0,0,0,0,0,0,0,0,0,0,0,0,0,0,0,0,0,0,0,0,0,0,0,0,0,0,0,0,0,0,0,0,0,0,0,0,0,0,0,-0.2042,-0.2041,0,-0.2021,-0.2021,-0.2022,-0.1954,-0.1952,-0.195,-0.1947,-0.2028,-0.2032,-0.2036,0,0,0,0,0,0,0,0,0,0,0,0,0,-0.1581,-0.1594,-0.2042,-0.2041,-0.204,-0.2021,-0.2021,-0.2022,-0.1954,-0.1952,-0.1949,-0.1946,-0.2027,-0.2032,-0.2037,0,0,0,0,0,0,0,0,0,0,0,0,0,-0.1702,-0.1598,-0.2042,-0.1998,-0.1993,-0.2021,-0.2021,-0.2022,-0.1955,-0.1952,-0.1948,-0.1945,-0.2025,-0.2031,-0.2037,-0.2144,0,0,-0.2057,-0.206,0,0,0,0,0,0,0,0,-0.1696,-0.172,-0.2006,-0.2001,-0.1996,-0.198,-0.1887,-0.2065,-0.1956,-0.1978,-0.1947,-0.1943,-0.2019,-0.2025,-0.2039,-0.2148,-0.2151,-0.2057,-0.2061,-0.2064,-0.2066,0,0,0,0,0,0,0,-0.1688,-0.1718,-0.2042,-0.2005,-0.1999,-0.1827,-0.1845,-0.1919,-0.2026,-0.1976,-0.1969,-0.1955,-0.2017,-0.2033,-0.204,-0.2153,-0.2057,-0.2063,-0.2067,-0.2069,-0.2339,-0.2342,0,0,0,0,0,0,-0.1705,-0.1715,-0.2042,-0.204,-0.1825,-0.1839,-0.186,-0.1995,-0.2022,-0.202,-0.1958,-0.1952,-0.2024,-0.2033,-0.2043,-0.2146,-0.2064,-0.207,-0.2074,-0.2335,-0.234,-0.2343,0,0,0,0,0,0,-0.1698,-0.1741,-0.2043,-0.1858,-0.1884,-0.1854,-0.2003,-0.1996,-0.1894,-0.2006,-0.2007,-0.1848,-0.2021,-0.2034,-0.2158,-0.2149,-0.2073,-0.2079,-0.2332,-0.2337,-0.2341,-0.2369,0,0,0,0,0,0,-0.1688,-0.1743,-0.1809,-0.1867,-0.1895,-0.2016,-0.2005,-0.1998,-0.1895,-0.1883,-0.1916,-0.1926,-0.202,-0.2149,-0.2164,-0.2157,-0.2084,-0.2327,-0.2334,-0.234,-0.2364,-0.2375,-0.2384,0,0,0,0,0,-0.1674,-0.1807,-0.1818,-0.1851,-0.2009,-0.2014,-0.2013,-0.1977,-0.189,-0.1865,-0.1967,-0.1919,-0.2196,-0.2161,-0.2177,-0.217,-0.2324,-0.2332,-0.2339,-0.236,-0.2373,-0.2384,0,0,0,0,0,0,-0.1643,-0.1814,-0.1825,-0.2007,-0.1976,-0.1998,-0.1961,-0.1903,-0.1946,-0.195,-0.2001,-0.2027,-0.2123,-0.2156,-0.2112,-0.227,-0.2234,-0.2245,-0.2244,-0.2256,-0.2266,-0.2092,-0.2089,0,0,0,0,0,-0.1674,-0.1781,-0.1878,-0.1961,-0.1972,-0.1926,-0.1899,-0.1895,-0.1942,-0.1942,-0.1993,-0.2076,-0.2185,-0.2222,-0.2334,-0.2425,-0.2335,-0.2422,-0.2431,-0.2439,-0.2314,-0.2305,-0.2299,-0.2368,-0.2368,-0.2368,0,0,-0.1621,-0.1754,-0.1781,-0.1946,-0.192,-0.1965,-0.1901,-0.1877,-0.1897,-0.1961,-0.2018,-0.211,-0.2221,-0.2369,-0.2404,-0.2379,-0.2376,-0.2448,-0.2454,-0.2321,-0.2312,-0.2304,-0.2297,-0.2373,-0.2372,-0.2371,0,0,-0.1596,-0.1744,-0.1816,-0.1858,-0.1888,-0.1909,-0.1867,-0.1904,-0.1899,-0.2,-0.2066,-0.2149,-0.2292,-0.2394,-0.2453,-0.2561,-0.2435,-0.2577,-0.2476,-0.2476,-0.2466,-0.2457,-0.2322,-0.23,-0.2576,-0.2576,-0.2576,0,-0.1544,-0.1694,-0.1793,-0.19,-0.1907,-0.1867,-0.1901,-0.1929,-0.1997,-0.2018,-0.2024,-0.2214,-0.2299,-0.2428,-0.2468,-0.2568,-0.2487,-0.2429,-0.2477,-0.2467,-0.2456,-0.232,-0.2296,-0.2578,-0.2578,-0.2578,-0.2578,0,-0.1597,-0.1684,-0.1706,-0.186,-0.1905,-0.1898,-0.1999,-0.1998,-0.1978,-0.2037,-0.2124,-0.2277,-0.2344,-0.2415,-0.246,-0.2449,-0.2386,-0.2496,-0.2422,-0.2449,-0.2307,-0.2281,-0.2582,-0.2581,-0.258,-0.258,0,0,-0.155,-0.1711,-0.1707,-0.1737,-0.1886,-0.192,-0.1977,-0.2021,-0.2007,-0.2108,-0.2116,-0.2274,-0.2264,-0.2318,-0.2395,-0.2367,-0.2246,-0.2345,-0.2345,-0.2156,-0.2103,-0.1995,-0.1955,-0.236,-0.2356,-0.2354,-0.2025,0,-0.1501,-0.162,-0.1767,-0.1794,-0.182,-0.1902,-0.1943,-0.2023,-0.2069,-0.2115,-0.2204,-0.2298,-0.2266,-0.23,-0.2253,-0.2299,-0.2175,-0.2312,-0.2143,-0.2132,-0.1994,-0.1923,-0.1936,-0.1638,-0.1999,-0.1994,-0.1991,0,-0.1523,-0.1573,-0.1631,-0.1711,-0.1742,-0.1797,-0.1832,-0.1902,-0.2003,-0.2031,-0.2085,-0.2197,-0.219,-0.2186,-0.2055,-0.2135,-0.2013,-0.2007,-0.2,-0.1832,-0.1975,-0.1679,-0.1575,-0.1946,-0.1949,-0.1953,-0.1956,0,-0.1381,-0.1489,-0.1502,-0.1553,-0.1679,-0.1694,-0.1727,-0.1839,-0.1875,-0.1985,-0.203,-0.2068,-0.2086,-0.1985,-0.192,-0.1971,-0.1752,-0.1888,-0.1634,-0.1624,-0.1551,-0.154,-0.1666,-0.1667,-0.1668,-0.1668,-0.1669,0,-0.1342,-0.1337,-0.1411,-0.1432,-0.1448,-0.1578,-0.1564,-0.1657,-0.1708,-0.1796,-0.195,-0.1981,-0.2022,-0.1979,-0.1865,-0.1618,-0.1691,-0.1488,-0.1517,-0.1565,-0.1561,-0.1783,-0.1801,-0.1656,-0.1659,-0.1661,-0.1663,0,-0.1271,-0.1304,-0.1326,-0.1376,-0.1412,-0.1438,-0.1472,-0.143,-0.1526,-0.164,-0.1691,-0.1848,-0.1773,-0.1767,-0.1636,-0.1534,-0.1381,-0.1257,-0.1231,-0.1258,-0.1235,-0.126,-0.0909,-0.0902,-0.0896,-0.0892,-0.0888,0,-0.1251,-0.124,-0.1302,-0.1293,-0.1331,-0.1307,-0.1268,-0.1334,-0.1322,-0.1557,-0.1615,-0.1652,-0.1639,-0.1384,-0.1218,-0.0953,-0.1104,-0.0848,-0.0951,-0.1084,-0.115,-0.1184,-0.1215,-0.0859,-0.0855,-0.0852,-0.085,0,-0.1189,-0.1211,-0.1237,-0.1202,-0.1186,-0.1195,-0.116,-0.1158,-0.1283,-0.1356,-0.1494,-0.1539,-0.1308,-0.1102,-0.0803,-0.0683,-0.0921,-0.0764,-0.094,-0.1069,-0.1018,-0.109,-0.1126,-0.0821,-0.0823,-0.0826,-0.0827,-0.0828,-0.1143,-0.1111,-0.1104,-0.1109,-0.1104,-0.1152,-0.112,-0.1087,-0.1154,-0.1311,-0.1341,-0.1286,-0.1191,-0.0665,-0.0521,-0.0407,-0.0458,-0.0548,-0.0567,-0.0587,-0.0659,-0.0605,-0.0332,-0.0333,-0.0333,-0.0333,-0.0333,0,-0.1084,-0.1018,-0.0968,-0.1005,-0.0997,-0.1028,-0.1084,-0.1048,-0.1101,-0.1097,-0.1087,-0.0906,-0.0688,-0.0546,-0.0285,-0.0184,-0.0247,-0.0234,-0.0418,-0.0448,-0.0474,-0.055,-0.0188,-0.0186,-0.0185,-0.0184,0,0,-0.1054,-0.1006,-0.0958,-0.093,-0.0897,-0.0915,-0.0954,-0.1006,-0.0972,-0.0913,-0.0762,-0.0646,-0.0559,-0.0371,-0.0324,-0.0239,-0.0336,-0.0202,-0.0338,-0.0591,-0.0616,-0.0684,-0.0835,0,0,0,0,0]},{"header":{"parameterUnit":"m.s-1","parameterCategory":2,"la1":30.2991,"la2":30.254,"lo1":-89.0895,"lo2":-89.0444,"dy":0.0017,"dx":0.0017,"nx":28,"ny":28,"refTime":"2024-08-13T09:00:00:Z","depth":"2","parameterNumber":3,"parameterNumberName":"V-component_of_CURRENTS"},"data":[0,0,0,0,0,0,0,0,0,0,0,0,0,0,0,0,0,0,0,0,0,0,0,0,0,0,0,0,0,0,0,0,0,0,0,0,0,0,0,0,0,0,0,0,0,0,0,0,0,0,0,0,0,0,0,0,0,0,0.0077,0.0079,0,0.0333,0.0336,0.034,0.0408,0.0406,0.0403,0.0401,0.0575,0.0582,0.0588,0,0,0,0,0,0,0,0,0,0,0,0,0,-0.0109,-0.0107,0.0077,0.0079,0.0082,0.0332,0.0337,0.0341,0.0408,0.0406,0.0403,0.04,0.0573,0.0581,0.0589,0,0,0,0,0,0,0,0,0,0,0,0,0,0.0048,-0.0107,0.0077,0.014,0.0148,0.0332,0.0337,0.0342,0.0409,0.0406,0.0402,0.0399,0.057,0.058,0.059,0.0719,0,0,0.0621,0.0625,0,0,0,0,0,0,0,0,0.0039,0.0056,0.0128,0.0136,0.0145,0.0328,0.0335,0.0461,0.041,0.0318,0.0401,0.0397,0.0483,0.05,0.0567,0.0727,0.0735,0.0622,0.0628,0.0632,0.0635,0,0,0,0,0,0,0,0.0027,0.0046,0.0186,0.0131,0.0141,0.0239,0.0256,0.0361,0.042,0.0326,0.0329,0.0347,0.0487,0.0558,0.0571,0.0737,0.0621,0.063,0.0637,0.0641,0.0893,0.0894,0,0,0,0,0,0,-0.0028,0.0035,0.0178,0.0193,0.0074,0.0243,0.0263,0.0279,0.0421,0.0438,0.0349,0.0349,0.0542,0.056,0.0578,0.0645,0.0632,0.0642,0.0647,0.0893,0.0894,0.0894,0,0,0,0,0,0,-0.0033,-0.0018,0.0167,0.0114,0.0143,0.0247,0.0267,0.0286,0.0305,0.0439,0.0455,0.0341,0.054,0.0563,0.0652,0.0654,0.0646,0.0655,0.0892,0.0893,0.0894,0.0838,0,0,0,0,0,0,-0.0039,-0.0021,-0.0039,0.011,0.0143,0.0218,0.027,0.0293,0.0321,0.0321,0.0439,0.0454,0.0539,0.0636,0.0661,0.0668,0.0663,0.0891,0.0892,0.0894,0.0839,0.0837,0.0836,0,0,0,0,0,-0.0047,-0.0047,-0.0041,-0.0025,0.0118,0.0216,0.0243,0.0313,0.0322,0.0321,0.0423,0.0448,0.066,0.0647,0.0676,0.0685,0.089,0.0892,0.0894,0.084,0.0838,0.0836,0,0,0,0,0,0,-0.0123,-0.0036,-0.0027,-0.0001,0.0065,0.0223,0.0234,0.0286,0.0374,0.037,0.0484,0.051,0.0587,0.0644,0.0625,0.0758,0.077,0.0777,0.0719,0.0718,0.0716,0.0601,0.0671,0,0,0,0,0,-0.0155,-0.0154,-0.0048,-0.004,-0.0015,0.0099,0.0142,0.0194,0.0298,0.0331,0.0416,0.0516,0.0633,0.0672,0.0774,0.0858,0.084,0.0873,0.0871,0.0869,0.0795,0.0837,0.083,0.0899,0.0899,0.0899,0,0,-0.019,-0.014,-0.0144,-0.0061,-0.0001,0.0051,0.0116,0.0167,0.0225,0.034,0.0419,0.0516,0.0655,0.0756,0.0791,0.0792,0.0836,0.0871,0.0869,0.0794,0.0837,0.083,0.0824,0.09,0.09,0.09,0,0,-0.0229,-0.0215,-0.0218,-0.0172,-0.0099,-0.0013,-0.0021,0.0106,0.0162,0.027,0.0372,0.0461,0.0619,0.0727,0.0807,0.0852,0.0832,0.0864,0.0762,0.0806,0.0799,0.0793,0.0732,0.0721,0.0857,0.0857,0.0857,0,-0.0281,-0.0254,-0.0205,-0.0183,-0.0152,-0.0061,-0.0037,0.006,0.02,0.0251,0.0265,0.0507,0.0616,0.0763,0.0758,0.0847,0.0805,0.0767,0.0799,0.0793,0.0788,0.0727,0.0715,0.0854,0.0855,0.0855,0.0855,0,-0.0302,-0.0291,-0.0289,-0.024,-0.0202,-0.0169,-0.0049,-0.0001,0.0072,0.0177,0.03,0.0463,0.0573,0.0648,0.0712,0.0742,0.07,0.0799,0.0793,0.0776,0.0714,0.0703,0.0851,0.0852,0.0852,0.0853,0,0,-0.0386,-0.0318,-0.0323,-0.031,-0.0231,-0.0188,-0.0118,-0.0006,0.0043,0.0165,0.0249,0.0425,0.0448,0.0529,0.0634,0.066,0.06,0.0656,0.066,0.0567,0.0572,0.0641,0.0634,0.0684,0.0682,0.0681,0.0531,0,-0.0421,-0.0406,-0.0348,-0.0328,-0.0315,-0.0227,-0.0173,-0.0072,0.0039,0.0143,0.0303,0.0427,0.0433,0.0485,0.0495,0.0618,0.0567,0.0622,0.0621,0.0618,0.0663,0.0626,0.0738,0.0623,0.052,0.0519,0.0517,0,-0.0446,-0.0442,-0.0433,-0.038,-0.0367,-0.0339,-0.0261,-0.018,-0.0018,0.005,0.0142,0.028,0.0357,0.0387,0.0419,0.0433,0.0414,0.0481,0.0481,0.0539,0.0667,0.0633,0.0606,0.0498,0.05,0.0501,0.0502,0,-0.0521,-0.0484,-0.0481,-0.0467,-0.0398,-0.0385,-0.0344,-0.0229,-0.0145,-0.0006,0.0063,0.0161,0.0241,0.0254,0.0328,0.0351,0.0353,0.046,0.0475,0.0477,0.0566,0.0581,0.0394,0.0394,0.0394,0.0395,0.0395,0,-0.0553,-0.0555,-0.0525,-0.0525,-0.0535,-0.0473,-0.0428,-0.0378,-0.0256,-0.0149,-0.0018,0.0075,0.0197,0.0262,0.0278,0.0313,0.0296,0.0391,0.0449,0.0551,0.0565,0.047,0.0481,0.0389,0.039,0.0392,0.0393,0,-0.0609,-0.0582,-0.0579,-0.0559,-0.0556,-0.0569,-0.0489,-0.0443,-0.0356,-0.021,-0.0163,-0.001,0.0055,0.0158,0.0222,0.0273,0.0331,0.0324,0.0376,0.0444,0.041,0.042,0.033,0.0331,0.0332,0.0333,0.0334,0,-0.062,-0.0629,-0.0626,-0.0623,-0.0611,-0.0606,-0.0594,-0.0523,-0.0461,-0.0247,-0.0188,-0.0058,0.0039,0.0135,0.0284,0.0327,0.0276,0.0418,0.053,0.0339,0.0405,0.0414,0.0422,0.0594,0.0597,0.0599,0.0601,0,-0.065,-0.0649,-0.0653,-0.0664,-0.0663,-0.0654,-0.0632,-0.0586,-0.0454,-0.033,-0.0176,-0.0055,0.0092,0.0297,0.0378,0.0396,0.045,0.0469,0.0281,0.0623,0.0587,0.0653,0.0652,0.0621,0.0619,0.0618,0.0617,0.0616,-0.0669,-0.0685,-0.067,-0.0677,-0.0681,-0.0672,-0.0639,-0.0572,-0.0461,-0.0235,-0.0191,0.0054,0.0197,0.0451,0.047,0.0553,0.0569,0.0623,0.0616,0.0607,0.0695,0.0668,0.0724,0.0723,0.0722,0.0721,0.072,0,-0.0669,-0.0667,-0.0666,-0.0669,-0.0669,-0.0674,-0.0625,-0.0549,-0.0398,-0.0213,-0.0076,0.016,0.0396,0.0519,0.0785,0.0832,0.0766,0.0737,0.0743,0.0729,0.0715,0.0806,0.0864,0.0863,0.0862,0.0861,0,0,-0.066,-0.0664,-0.0659,-0.0643,-0.0637,-0.0612,-0.0571,-0.0448,-0.0298,-0.0089,0.0142,0.0263,0.0532,0.0679,0.0743,0.0884,0.0717,0.0794,0.0707,0.0697,0.0678,0.0719,0.0854,0,0,0,0,0]}],[{"header":{"parameterUnit":"m.s-1","parameterCategory":2,"la1":30.2991,"la2":30.254,"lo1":-89.0895,"lo2":-89.0444,"dy":0.0017,"dx":0.0017,"nx":28,"ny":28,"refTime":"2024-08-13T09:00:00:Z","depth":"4","parameterNumber":2,"parameterNumberName":"U-component_of_CURRENTS"},"data":[0,0,0,0,0,0,0,0,0,0,0,0,0,0,0,0,0,0,0,0,0,0,0,0,0,0,0,0,0,0,0,0,0,0,0,0,0,0,0,0,0,0,0,0,0,0,0,0,0,0,0,0,0,0,0,0,0,0,-0.1069,-0.1069,0,-0.1146,-0.1147,-0.1148,-0.1201,-0.1201,-0.1201,-0.1201,-0.1299,-0.1302,-0.1304,0,0,0,0,0,0,0,0,0,0,0,0,0,-0.0981,-0.0982,-0.1068,-0.1069,-0.107,-0.1145,-0.1147,-0.1148,-0.1201,-0.1201,-0.1201,-0.1201,-0.1298,-0.1301,-0.1304,0,0,0,0,0,0,0,0,0,0,0,0,0,-0.1037,-0.0983,-0.1068,-0.1103,-0.1107,-0.1145,-0.1147,-0.1148,-0.1201,-0.1201,-0.1201,-0.1201,-0.1297,-0.1301,-0.1305,-0.1325,0,0,-0.1316,-0.1318,0,0,0,0,0,0,0,0,-0.1034,-0.1041,-0.1097,-0.1101,-0.1105,-0.1161,-0.1152,-0.1207,-0.1201,-0.1168,-0.1201,-0.1201,-0.1253,-0.126,-0.1278,-0.1329,-0.1334,-0.1316,-0.1319,-0.132,-0.1321,0,0,0,0,0,0,0,-0.103,-0.1038,-0.1102,-0.1098,-0.1102,-0.1119,-0.1127,-0.1163,-0.1212,-0.1171,-0.1175,-0.1178,-0.1255,-0.1275,-0.1281,-0.1335,-0.1316,-0.132,-0.1322,-0.1324,-0.1458,-0.1459,0,0,0,0,0,0,-0.1014,-0.1034,-0.11,-0.1104,-0.1065,-0.112,-0.113,-0.1145,-0.1211,-0.122,-0.1178,-0.118,-0.1268,-0.1277,-0.1285,-0.1371,-0.132,-0.1324,-0.1326,-0.1457,-0.1458,-0.146,0,0,0,0,0,0,-0.1012,-0.1019,-0.1097,-0.1068,-0.1078,-0.1121,-0.1138,-0.1147,-0.1195,-0.1215,-0.1225,-0.122,-0.1269,-0.1279,-0.1321,-0.1373,-0.1326,-0.1329,-0.1455,-0.1457,-0.1459,-0.1507,0,0,0,0,0,0,-0.1009,-0.1018,-0.104,-0.1067,-0.1079,-0.1121,-0.1138,-0.1148,-0.1194,-0.1198,-0.1254,-0.1262,-0.127,-0.1315,-0.1325,-0.1377,-0.1332,-0.1453,-0.1456,-0.1458,-0.1503,-0.151,-0.1516,0,0,0,0,0,-0.1006,-0.1016,-0.1041,-0.1049,-0.1103,-0.1121,-0.113,-0.1162,-0.1196,-0.121,-0.1245,-0.1262,-0.1338,-0.1318,-0.133,-0.1385,-0.1452,-0.1455,-0.1458,-0.1501,-0.1509,-0.1515,0,0,0,0,0,0,-0.0992,-0.1024,-0.105,-0.1074,-0.1101,-0.1129,-0.1157,-0.1182,-0.1226,-0.125,-0.1271,-0.128,-0.1347,-0.135,-0.1328,-0.1429,-0.1402,-0.1407,-0.1431,-0.1438,-0.1444,-0.1398,-0.1335,0,0,0,0,0,-0.0999,-0.0999,-0.1049,-0.1056,-0.1096,-0.114,-0.1161,-0.1185,-0.1217,-0.1241,-0.1261,-0.1305,-0.1364,-0.1386,-0.1423,-0.1469,-0.1453,-0.1513,-0.1519,-0.1524,-0.1493,-0.1534,-0.1541,-0.1469,-0.1469,-0.1469,0,0,-0.0995,-0.1002,-0.101,-0.105,-0.1094,-0.1149,-0.1156,-0.1198,-0.1227,-0.1244,-0.129,-0.1333,-0.1383,-0.1439,-0.1469,-0.1448,-0.1534,-0.1528,-0.1532,-0.1498,-0.1538,-0.1544,-0.1551,-0.1471,-0.1471,-0.1471,0,0,-0.0973,-0.1011,-0.1029,-0.1066,-0.1122,-0.1154,-0.1176,-0.1226,-0.1247,-0.1293,-0.1327,-0.1351,-0.1447,-0.145,-0.1484,-0.1536,-0.1574,-0.1608,-0.1596,-0.1638,-0.1644,-0.1649,-0.1625,-0.1628,-0.1602,-0.1602,-0.1602,0,-0.0975,-0.1,-0.1033,-0.1077,-0.1109,-0.1169,-0.1221,-0.1256,-0.129,-0.1301,-0.1313,-0.142,-0.1432,-0.1504,-0.1521,-0.1544,-0.1586,-0.157,-0.1645,-0.165,-0.1654,-0.1629,-0.1631,-0.1605,-0.1604,-0.1604,-0.1604,0,-0.0988,-0.1024,-0.1043,-0.1116,-0.1158,-0.1197,-0.1267,-0.1287,-0.1329,-0.1359,-0.1424,-0.1434,-0.1482,-0.1519,-0.1542,-0.1603,-0.1628,-0.1659,-0.1624,-0.1664,-0.1635,-0.1636,-0.1609,-0.1608,-0.1607,-0.1606,0,0,-0.0953,-0.1035,-0.1044,-0.1077,-0.1183,-0.1204,-0.1269,-0.1325,-0.1351,-0.1403,-0.1432,-0.1499,-0.1513,-0.1544,-0.1579,-0.1599,-0.1635,-0.1658,-0.1659,-0.1626,-0.1732,-0.1582,-0.1568,-0.1742,-0.1743,-0.1744,-0.1695,0,-0.096,-0.1004,-0.1057,-0.1119,-0.1173,-0.1237,-0.1282,-0.1338,-0.1378,-0.1413,-0.1456,-0.1519,-0.1535,-0.1571,-0.1598,-0.1645,-0.1647,-0.1643,-0.1703,-0.1701,-0.1558,-0.1566,-0.1746,-0.1696,-0.1696,-0.1696,-0.1696,0,-0.098,-0.0992,-0.1049,-0.1105,-0.1142,-0.1186,-0.1242,-0.1299,-0.138,-0.141,-0.1477,-0.1539,-0.1576,-0.1588,-0.1645,-0.1683,-0.1696,-0.171,-0.1711,-0.1544,-0.1552,-0.1651,-0.1698,-0.1698,-0.1698,-0.1697,-0.1697,0,-0.0916,-0.0988,-0.1007,-0.1039,-0.1133,-0.1149,-0.121,-0.1292,-0.1327,-0.1422,-0.1437,-0.1541,-0.1567,-0.1639,-0.1654,-0.1696,-0.1706,-0.1753,-0.1608,-0.1597,-0.1727,-0.1722,-0.1765,-0.1765,-0.1765,-0.1766,-0.1766,0,-0.089,-0.0912,-0.0971,-0.0987,-0.1021,-0.1114,-0.1172,-0.1216,-0.1296,-0.131,-0.1441,-0.1427,-0.16,-0.163,-0.1664,-0.1613,-0.1707,-0.1573,-0.1574,-0.1746,-0.1745,-0.1726,-0.1722,-0.1764,-0.1764,-0.1765,-0.1765,0,-0.0838,-0.0876,-0.0904,-0.0969,-0.1002,-0.1033,-0.1155,-0.1174,-0.125,-0.1256,-0.1289,-0.1379,-0.1402,-0.1506,-0.1583,-0.1569,-0.1564,-0.152,-0.1641,-0.1656,-0.1424,-0.1423,-0.1354,-0.1348,-0.1343,-0.1339,-0.1336,0,-0.0817,-0.0828,-0.0887,-0.0895,-0.0927,-0.1004,-0.1053,-0.1157,-0.115,-0.1168,-0.1125,-0.1188,-0.123,-0.121,-0.1348,-0.1395,-0.1394,-0.1389,-0.144,-0.1373,-0.1382,-0.1389,-0.1395,-0.1328,-0.1327,-0.1326,-0.1324,0,-0.0788,-0.0809,-0.0822,-0.0833,-0.0862,-0.0903,-0.0944,-0.0939,-0.0999,-0.1052,-0.0941,-0.0968,-0.0977,-0.1085,-0.1139,-0.1172,-0.1406,-0.1339,-0.1351,-0.1398,-0.1341,-0.1357,-0.1368,-0.1308,-0.131,-0.1312,-0.1313,0,-0.0769,-0.0758,-0.0767,-0.077,-0.0777,-0.0743,-0.0818,-0.0784,-0.0813,-0.0801,-0.0753,-0.0808,-0.0899,-0.0958,-0.0988,-0.1035,-0.1043,-0.1052,-0.1079,-0.1099,-0.1051,-0.0944,-0.0759,0,0,0,0,0,-0.0744,-0.0716,-0.0706,-0.0668,-0.0649,-0.0652,-0.0695,-0.0759,-0.08,-0.0673,-0.0706,-0.0689,-0.0725,-0.0794,-0.0801,-0.0921,-0.1082,-0.0928,-0.1114,-0.1214,-0.1234,-0.1209,0,0,0,0,0,0,-0.0718,-0.0707,-0.0684,-0.0566,-0.0511,-0.0484,-0.0509,-0.0547,-0.0502,-0.0546,-0.0593,-0.0613,-0.0707,-0.0686,-0.0764,-0.0789,-0.0889,-0.0982,-0.0979,-0.1203,-0.1221,-0.1237,-0.1218,0,0,0,0,0]},{"header":{"parameterUnit":"m.s-1","parameterCategory":2,"la1":30.2991,"la2":30.254,"lo1":-89.0895,"lo2":-89.0444,"dy":0.0017,"dx":0.0017,"nx":28,"ny":28,"refTime":"2024-08-13T09:00:00:Z","depth":"4","parameterNumber":3,"parameterNumberName":"V-component_of_CURRENTS"},"data":[0,0,0,0,0,0,0,0,0,0,0,0,0,0,0,0,0,0,0,0,0,0,0,0,0,0,0,0,0,0,0,0,0,0,0,0,0,0,0,0,0,0,0,0,0,0,0,0,0,0,0,0,0,0,0,0,0,0,-0.032,-0.032,0,-0.0305,-0.0304,-0.0303,-0.0276,-0.0276,-0.0276,-0.0276,-0.0249,-0.0248,-0.0248,0,0,0,0,0,0,0,0,0,0,0,0,0,-0.0284,-0.0285,-0.032,-0.032,-0.032,-0.0305,-0.0304,-0.0303,-0.0276,-0.0276,-0.0276,-0.0276,-0.0249,-0.0248,-0.0248,0,0,0,0,0,0,0,0,0,0,0,0,0,-0.0282,-0.0285,-0.032,-0.0309,-0.0308,-0.0305,-0.0304,-0.0303,-0.0276,-0.0276,-0.0276,-0.0276,-0.0249,-0.0248,-0.0247,-0.0241,0,0,-0.0244,-0.0244,0,0,0,0,0,0,0,0,-0.0282,-0.0283,-0.031,-0.031,-0.0309,-0.0297,-0.0282,-0.0284,-0.0276,-0.0282,-0.0276,-0.0276,-0.0268,-0.0265,-0.0254,-0.0239,-0.0238,-0.0244,-0.0243,-0.0243,-0.0243,0,0,0,0,0,0,0,-0.0283,-0.0283,-0.0308,-0.0311,-0.031,-0.0292,-0.0291,-0.0282,-0.027,-0.0281,-0.0281,-0.0288,-0.0267,-0.0255,-0.0253,-0.0238,-0.0244,-0.0243,-0.0242,-0.0242,-0.0293,-0.0295,0,0,0,0,0,0,-0.0298,-0.0283,-0.0308,-0.0308,-0.0302,-0.0293,-0.0292,-0.0296,-0.0271,-0.0268,-0.0288,-0.0287,-0.0257,-0.0255,-0.0252,-0.0291,-0.0243,-0.0242,-0.0241,-0.0291,-0.0294,-0.0296,0,0,0,0,0,0,-0.0298,-0.0301,-0.0309,-0.03,-0.0301,-0.0295,-0.0299,-0.0296,-0.0297,-0.0277,-0.0274,-0.0295,-0.0257,-0.0254,-0.0269,-0.0288,-0.0241,-0.024,-0.0289,-0.0292,-0.0295,-0.0337,0,0,0,0,0,0,-0.0297,-0.03,-0.0307,-0.0301,-0.0302,-0.0324,-0.0299,-0.0296,-0.0304,-0.0302,-0.0282,-0.0278,-0.0257,-0.0271,-0.0268,-0.0285,-0.024,-0.0287,-0.029,-0.0294,-0.0333,-0.0341,-0.0348,0,0,0,0,0,-0.0295,-0.0311,-0.0307,-0.0311,-0.0312,-0.0326,-0.0324,-0.0315,-0.0305,-0.0313,-0.0306,-0.0279,-0.0293,-0.0272,-0.0268,-0.0285,-0.0285,-0.0289,-0.0294,-0.033,-0.0339,-0.0348,0,0,0,0,0,0,-0.0301,-0.031,-0.0306,-0.0323,-0.0332,-0.0324,-0.0327,-0.0326,-0.0324,-0.0319,-0.0298,-0.0295,-0.0315,-0.0304,-0.0281,-0.0317,-0.0288,-0.0291,-0.0316,-0.0325,-0.0333,-0.0325,-0.0239,0,0,0,0,0,-0.0307,-0.032,-0.0326,-0.0342,-0.0342,-0.0335,-0.0339,-0.0338,-0.0338,-0.0336,-0.0333,-0.033,-0.0329,-0.033,-0.0329,-0.0344,-0.0278,-0.0358,-0.0366,-0.0372,-0.0367,-0.0273,-0.0269,-0.0311,-0.0311,-0.0311,0,0,-0.032,-0.0323,-0.0334,-0.0345,-0.0339,-0.036,-0.0336,-0.0347,-0.0369,-0.0334,-0.0362,-0.0354,-0.0341,-0.0359,-0.0368,-0.0351,-0.033,-0.0378,-0.0382,-0.0374,-0.0277,-0.0272,-0.0267,-0.0314,-0.0313,-0.0313,0,0,-0.0344,-0.0346,-0.0358,-0.0369,-0.0376,-0.038,-0.0391,-0.0398,-0.0397,-0.0426,-0.0407,-0.0419,-0.0425,-0.042,-0.0415,-0.0467,-0.0372,-0.0468,-0.0493,-0.0402,-0.0396,-0.039,-0.0304,-0.029,-0.0471,-0.0471,-0.0471,0,-0.0357,-0.0372,-0.0367,-0.0381,-0.0403,-0.0397,-0.0426,-0.0426,-0.0446,-0.0449,-0.0448,-0.0457,-0.0455,-0.0459,-0.048,-0.0481,-0.04,-0.0453,-0.0406,-0.0399,-0.0392,-0.0304,-0.0288,-0.0474,-0.0473,-0.0473,-0.0473,0,-0.0383,-0.0403,-0.041,-0.0432,-0.0459,-0.0479,-0.0494,-0.0514,-0.0523,-0.0522,-0.0536,-0.0529,-0.0532,-0.0539,-0.0522,-0.0489,-0.0437,-0.0419,-0.037,-0.0389,-0.0297,-0.0279,-0.0477,-0.0476,-0.0476,-0.0475,0,0,-0.0399,-0.0423,-0.043,-0.045,-0.0487,-0.0513,-0.0551,-0.0577,-0.0598,-0.06,-0.0612,-0.0619,-0.0598,-0.0593,-0.0572,-0.0503,-0.0399,-0.0437,-0.0431,-0.0328,-0.017,-0.0174,-0.0154,-0.0342,-0.0339,-0.0337,-0.0124,0,-0.0419,-0.0453,-0.0474,-0.0537,-0.0557,-0.0584,-0.0631,-0.0656,-0.0666,-0.0677,-0.0639,-0.0652,-0.062,-0.0626,-0.0546,-0.0436,-0.0353,-0.0457,-0.0188,-0.0181,-0.0161,-0.0135,-0.0329,-0.0111,-0.0106,-0.0103,-0.0101,0,-0.0442,-0.046,-0.0512,-0.0583,-0.0598,-0.0651,-0.072,-0.0754,-0.0756,-0.0764,-0.0741,-0.0706,-0.0636,-0.0607,-0.0387,-0.0438,-0.0309,-0.0214,-0.0202,-0.0176,-0.0151,-0.009,-0.0068,-0.007,-0.0073,-0.0075,-0.0077,0,-0.045,-0.0501,-0.0545,-0.0567,-0.0639,-0.0683,-0.0734,-0.0777,-0.0807,-0.0808,-0.082,-0.0723,-0.068,-0.0494,-0.0308,-0.0324,-0.0034,-0.0039,0.008,0.0082,0.0044,0.0036,0.013,0.013,0.013,0.0129,0.0128,0,-0.0471,-0.0511,-0.055,-0.0576,-0.0655,-0.0702,-0.0783,-0.0828,-0.0863,-0.0876,-0.0853,-0.0829,-0.0639,-0.0464,-0.0282,-0.0033,-0.0004,0.0094,0.0143,0.0016,0.0002,0.0058,0.0047,0.0137,0.0135,0.0134,0.0132,0,-0.0486,-0.0506,-0.0556,-0.0624,-0.0661,-0.0716,-0.0827,-0.0865,-0.0914,-0.0923,-0.0924,-0.0864,-0.0647,-0.0438,-0.0139,-0.0018,0.0217,0.0295,0.0156,0.0191,0.0267,0.0251,0.045,0.0452,0.0453,0.0454,0.0455,0,-0.0492,-0.0513,-0.0586,-0.0625,-0.0665,-0.0747,-0.0807,-0.0887,-0.0906,-0.0926,-0.0903,-0.0768,-0.0681,-0.0258,-0.0063,0.0283,0.031,0.0418,0.0325,0.0276,0.0304,0.0285,0.0267,0.0458,0.0458,0.0459,0.0459,0,-0.0503,-0.0527,-0.0567,-0.0634,-0.07,-0.077,-0.0837,-0.0858,-0.0905,-0.0944,-0.0854,-0.0713,-0.0483,-0.0227,0.0032,0.0271,0.0339,0.0434,0.0431,0.0344,0.0288,0.031,0.029,0.0464,0.0463,0.0463,0.0463,0,-0.0509,-0.0537,-0.0579,-0.0644,-0.0715,-0.0758,-0.0807,-0.0804,-0.0835,-0.0835,-0.0786,-0.0616,-0.0519,-0.0229,0.0023,0.0242,0.0271,0.0312,0.0316,0.0312,0.0182,0.0084,0.026,0,0,0,0,0,-0.0507,-0.0536,-0.0588,-0.0651,-0.0713,-0.0748,-0.0807,-0.0834,-0.0856,-0.0775,-0.0784,-0.0572,-0.0289,-0.0193,0.0036,0.0042,0.0306,0.031,0.0356,0.0493,0.0487,0.0354,0,0,0,0,0,0,-0.0514,-0.0555,-0.0575,-0.0628,-0.0665,-0.0727,-0.0757,-0.0776,-0.0722,-0.0727,-0.056,-0.053,-0.0232,-0.0392,0.0042,0.0095,0.0147,0.0433,0.0437,0.0496,0.0491,0.0486,0.0347,0,0,0,0,0]}]]